Terminal Aerodrome Forecast
Issued by NWS

Home | Current Version | Previous Version | Text Only | Print | Product List | Glossary On
Versions: 1 2 3 4 5 6 7 8 9 10 11 12 13 14 15 16 17 18 19 20
000
FTUS43 KILX 261138
TAFBMI
TAF
KBMI 261138Z 2612/2712 16012KT P6SM OVC008
      TEMPO 2612/2614 2SM -SHRA BR BKN005
     FM261400 18014G20KT 6SM -SHRA OVC008
     FM261800 22018G26KT P6SM VCTS OVC025CB
     FM270000 22012KT P6SM BKN035=

USA.gov is the U.S. government's official web portal to all federal, state and local government web resources and services.